STARLINK-6036, 56800

Orbit data source: Space-Track

STARLINK-6036, 56800 is a payload satellite owned by SpaceX/Seattle (US) in LEO that was launched on Wed, 31 May 2023 UTC via an FALCON 9 launch vehicle from the Air Force Western Test Range (AFWTR). Payload-class satellites include a variety of spacecraft equipped with specific instruments for various scientific and technological missions. These include communications satellites like Starlink; space stations such as the ISS; scientific satellites like the Hubble; Earth observation satellites from companies like Planet Labs, Umbra, and HawkEye 360; GPS; miniature CubeSats for education and research; and military/defense satellites.

Loading next visibility...
Identifier
56800, 2023-078AK
Orbit
LEO
Last TLE update
12 hours ago
Origin
Manufacturer
SpaceX/Seattle
Mission
Operational Commercial Communications
Bus & Motor
STARLINK, Unknown motor
Mass
305 kg wet, ~290 kg dry
Launch date (UTC)
2023-05-31 (2 years ago)
Launch vehicle
FALCON 9
Launch site
Air Force Western Test Range (AFWTR)
Object type
Payload
Rocket body
Debris
Shape & HBR
Box + 1 Pan, 9 m
Radar Cross Section
11.087 m², Large (>1 m²)

Expand to show TLE details & history

TLE from 12 hours ago
0 STARLINK-6036
1 56800U 23078AK  25131.43165634  .00000076  00000-0  14127-4 0  9995
2 56800  70.0007  26.6086 0002771 268.4465  91.6377 14.98330153107665
Epoch: 2025-05-11T10:21Z
Definitive object data (Epoch: 2025-05-11T10:21:35.107Z)
Latitude
-0.00001°
Longitude
1.75313°
Altitude
574.535 km
Speed
7.574 km/s
True Right ascension
01h 46m 26s
True Declination
0° 00' 00"
Sunlit
Object was in daylight at TLE epoch
Visualization TLE readout
Latitude
9.38853°
Longitude
177.0649°
Altitude
574.006 km
Speed
7.575 km/s
Apparent Right ascension
15h 32m 45s
Apparent Declination
-17° 41' 32"
Sunlit
Object is in full shadow
Visualization observer readout
Local Sidereal Time
06:39:13
Azimuth
74.903° E
Elevation
-44.178°
Doppler factor
1
Orbital elements
Apogee altitude
571.929 km
Perigee altitude
568.078 km
Semi-major axis
6,948.141 km
Eccentricity
0.0002771
Inclination
70.0007°
RAAN
26.6086°
Arg. of periapsis
268.4465°
True anomaly
91.66944°
Mean anomaly
91.6377°
Eccentric anomaly
91.65357°
Mean motion
3.74749 °/min
BSTAR
0.000014127
Orbital period
96.06 mins
Loading maneuver chart data...
Loading SW <> Apogee altitude chart data...
Loading historical data...
Loading historical data...
Loading historical data...
Loading historical data...
Loading historical data...
Loading historical data...
Loading historical data...

STARLINK-6036 Visibility forecast

Observer location: undefined°, undefined°

Span
Click to sort rows by Start time (UTC) header in descending order
Start Az.
Max El. time (UTC)
Max El. Az.
Max El.
End time (UTC)
End Az.
5 mins2025-05-12 02:54:53.702Z11.76° NNE2025-05-12 02:57:53.702Z58.238° ENE16.623°2025-05-12 02:59:53.702Z89.865° E
6 mins2025-05-12 04:33:53.702Z309.645° NW2025-05-12 04:35:53.702Z261.477° W33.601°2025-05-12 04:39:53.702Z180.881° SSW
6 mins2025-05-12 18:33:53.702Z223.707° SW2025-05-12 18:35:53.702Z282.387° WNW41.031°2025-05-12 18:39:53.702Z16.745° NNE
|